N1YZ Weather Reports


time (UTC)temp
C
wind
direction
speed
KPH
gust
KPH
rain 1hr
cm
rain 24hr
cm
rain mn
cm
humidity
%
barometer
mb
20260904044106 26 354 0.0 0.0 0.00 0.00 0.00 87 1034.7
20260904043602 26 354 0.0 0.0 0.00 0.00 0.00 87 1034.6
20260904043058 27 354 0.0 0.0 0.00 0.00 0.00 86 1035.0
20260904042553 27 354 0.0 0.0 0.00 0.00 0.00 86 1035.1
20260904042048 27 354 0.0 0.0 0.00 0.00 0.00 85 1035.0
20260904041544 27 354 0.0 0.0 0.00 0.00 0.00 84 1035.0
20260904041040 27 354 0.0 0.0 0.00 0.00 0.00 84 1034.8
20260904040540 27 2 0.0 0.0 0.00 0.00 0.00 84 1035.2
20260904040037 27 358 0.0 0.0 0.00 0.00 0.00 85 1035.0
20260904035537 27 357 0.0 0.0 0.00 0.00 0.00 85 1035.1
20260904035031 27 357 0.0 0.0 0.00 0.00 0.00 85 1035.1
20260904034526 27 357 0.0 0.0 0.00 0.00 0.00 85 1035.3
20260904034021 27 357 0.0 0.0 0.00 0.00 0.00 83 1035.1
20260904033518 27 357 0.0 0.0 0.00 0.00 0.00 83 1035.3
20260904033014 27 357 0.0 0.0 0.00 0.00 0.00 82 1035.2
20260904032509 27 357 0.0 0.0 0.00 0.00 0.00 82 1035.4
20260904032009 27 358 0.0 0.0 0.00 0.00 0.00 82 1035.1
20260904031504 27 336 0.0 0.0 0.00 0.00 0.00 82 1035.3
20260904031000 27 3 0.0 0.0 0.00 0.00 0.00 81 1035.0
20260904030455 27 3 0.0 0.0 0.00 0.00 0.00 81 1035.1
20260904025949 27 3 0.0 0.0 0.00 0.00 0.00 80 1035.2
20260904025446 27 3 0.0 0.0 0.00 0.00 0.00 80 1035.2
20260904024946 27 3 0.0 0.0 0.00 0.00 0.00 80 1035.2
20260904024441 27 3 0.0 0.0 0.00 0.00 0.00 80 1035.1
20260904023937 27 3 0.0 0.0 0.00 0.00 0.00 80 1035.4
20260904023433 28 3 0.0 0.0 0.00 0.00 0.00 80 1035.4
20260904022932 28 3 0.0 0.0 0.00 0.00 0.00 80 1035.3
20260904022429 28 3 0.0 0.0 0.00 0.00 0.00 80 1035.2
20260904021925 28 3 0.0 0.0 0.00 0.00 0.00 79 1035.1
20260904021421 28 3 0.0 0.0 0.00 0.00 0.00 79 1035.1
20260904020915 28 3 0.0 0.0 0.00 0.00 0.00 78 1035.1
20260904020411 28 3 0.0 0.0 0.00 0.00 0.00 78 1034.8
20260904015909 28 3 0.0 0.0 0.00 0.00 0.00 78 1034.8
20260904015405 28 3 0.0 0.0 0.00 0.00 0.00 78 1034.7
20260904014903 28 3 0.0 0.0 0.00 0.00 0.00 77 1034.7
20260904014359 28 3 0.0 0.0 0.00 0.00 0.00 77 1035.1
20260904013854 28 1 0.0 0.0 0.00 0.00 0.00 77 1035.0
20260904013350 28 356 0.0 0.0 0.00 0.00 0.00 77 1034.6
20260904012846 28 16 0.0 0.0 0.00 0.00 0.00 76 1034.8
20260904012340 28 16 0.0 0.0 0.00 0.00 0.00 76 1034.8
20260904011839 28 44 0.0 0.0 0.00 0.00 0.00 76 1034.7
20260904011335 29 2 0.0 0.0 0.00 0.00 0.00 75 1034.7
20260904010829 29 1 0.0 0.0 0.00 0.00 0.00 75 1034.2
20260904010327 29 36 0.0 0.0 0.00 0.00 0.00 74 1034.3
20260904005821 30 20 0.0 0.0 0.00 0.00 0.00 73 1034.3
20260904005317 30 333 0.0 0.0 0.00 0.00 0.00 73 1034.2
20260904004811 29 3 0.0 0.0 0.00 0.00 0.00 73 1034.1
20260904004308 29 4 0.0 0.0 0.00 0.00 0.00 73 1034.1
20260904003803 29 7 0.0 0.0 0.00 0.00 0.00 74 1034.2
20260904003259 30 7 0.0 0.0 0.00 0.00 0.00 73 1034.1
20260904002754 30 6 0.0 0.0 0.00 0.00 0.00 72 1034.1
20260904002250 30 2 0.0 0.0 0.00 0.00 0.00 71 1034.2
20260904001749 30 11 0.0 0.0 0.00 0.00 0.00 70 1033.9
20260904001244 30 31 0.0 0.0 0.00 0.00 0.00 70 1033.9
20260904000739 30 24 0.0 0.0 0.00 0.00 0.00 69 1033.9
20260904000234 30 16 0.0 0.0 0.00 0.00 0.00 71 1034.2
20260903235734 30 16 0.0 0.0 0.00 0.00 0.00 72 1034.0
20260903235230 30 1 1.6 1.6 0.00 0.00 0.00 71 1033.9
20260903234723 31 3 0.0 0.0 0.00 0.00 0.00 70 1033.8
20260903234220 31 3 0.0 0.0 0.00 0.00 0.00 69 1034.0
20260903233716 31 3 0.0 0.0 0.00 0.00 0.00 67 1033.8
20260903233212 31 34 0.0 0.0 0.00 0.00 0.00 66 1034.1
20260903232710 31 345 0.0 0.0 0.00 0.00 0.00 67 1034.1
20260903232207 31 357 0.0 0.0 0.00 0.00 0.00 68 1033.8
20260903231705 31 355 0.0 0.0 0.00 0.00 0.00 66 1033.9
20260903231201 32 344 0.0 0.0 0.00 0.00 0.00 64 1033.8
20260903230656 32 27 0.0 0.0 0.00 0.00 0.00 62 1033.7
20260903230156 33 18 0.0 0.0 0.00 0.00 0.00 60 1033.9
20260903225652 33 358 0.0 0.0 0.00 0.00 0.00 59 1033.7
20260903225149 33 24 0.0 0.0 0.00 0.00 0.00 59 1033.7
20260903224644 33 347 0.0 0.0 0.00 0.00 0.00 59 1033.7
20260903224141 33 343 0.0 0.0 0.00 0.00 0.00 59 1033.6
20260903223636 33 299 0.0 0.0 0.00 0.00 0.00 59 1033.6
20260903223133 33 2 0.0 0.0 0.00 0.00 0.00 60 1033.8
20260903222624 33 359 0.0 0.0 0.00 0.00 0.00 60 1033.7
20260903222122 33 3 0.0 0.0 0.00 0.00 0.00 59 1033.7
20260903221618 33 11 0.0 0.0 0.00 0.00 0.00 58 1033.7
20260903221116 33 355 0.0 0.0 0.00 0.00 0.00 58 1033.5
20260903220615 33 359 0.0 0.0 0.00 0.00 0.00 57 1033.5
20260903220115 33 10 0.0 0.0 0.00 0.00 0.00 55 1033.3
20260903215614 33 19 3.2 3.2 0.00 0.00 0.00 54 1033.4
20260903215109 33 352 1.6 1.6 0.00 0.00 0.00 54 1033.2
20260903214608 33 347 0.0 0.0 0.00 0.00 0.00 58 1033.2
20260903214103 33 341 0.0 0.0 0.00 0.00 0.00 57 1033.2
20260903213558 33 350 0.0 0.0 0.00 0.00 0.00 56 1033.3
20260903213054 34 358 3.2 3.2 0.00 0.00 0.00 57 1033.3
20260903212550 34 359 0.0 0.0 0.00 0.00 0.00 56 1033.3
20260903212045 34 34 0.0 0.0 0.00 0.00 0.00 54 1033.3
20260903211540 34 94 1.6 1.6 0.00 0.00 0.00 54 1033.3
20260903211036 34 8 0.0 0.0 0.00 0.00 0.00 54 1033.4
20260903210531 34 346 1.6 3.2 0.00 0.00 0.00 57 1033.4
20260903210026 34 16 0.0 0.0 0.00 0.00 0.00 54 1033.6
20260903205520 34 26 1.6 1.6 0.00 0.00 0.00 56 1033.6
20260903205015 34 18 0.0 1.6 0.00 0.00 0.00 57 1033.7
20260903204511 34 59 0.0 0.0 0.00 0.00 0.00 56 1033.5
20260903204006 34 0 0.0 1.6 0.00 0.00 0.00 56 1033.4
20260903203501 34 8 1.6 3.2 0.00 0.00 0.00 57 1033.7
20260903203000 34 40 0.0 1.6 0.00 0.00 0.00 55 1033.7
20260903202457 33 15 0.0 0.0 0.00 0.00 0.00 57 1033.6
20260903201951 33 7 0.0 0.0 0.00 0.00 0.00 58 1034.0
20260903201447 33 83 1.6 1.6 0.00 0.00 0.00 59 1033.8
20260903200945 34 9 0.0 1.6 0.00 0.00 0.00 56 1033.9
20260903200441 35 19 0.0 0.0 0.00 0.00 0.00 55 1034.1
20260903195935 35 25 0.0 0.0 0.00 0.00 0.00 54 1034.4
20260903195432 35 21 1.6 1.6 0.00 0.00 0.00 50 1034.4
20260903194926 35 3 0.0 0.0 0.00 0.00 0.00 55 1034.4
20260903194422 34 351 3.2 4.8 0.00 0.00 0.00 56 1034.3
20260903193917 34 5 0.0 0.0 0.00 0.00 0.00 56 1034.4
20260903193414 34 12 0.0 0.0 0.00 0.00 0.00 55 1034.5
20260903192908 35 20 0.0 1.6 0.00 0.00 0.00 52 1034.5
20260903192404 35 26 0.0 1.6 0.00 0.00 0.00 55 1034.7
20260903191901 34 19 0.0 0.0 0.00 0.00 0.00 56 1035.0
20260903191356 34 16 0.0 0.0 0.00 0.00 0.00 56 1034.8
20260903190855 35 358 1.6 1.6 0.00 0.00 0.00 53 1035.2
20260903190350 35 7 0.0 0.0 0.00 0.00 0.00 53 1035.0
20260903185849 35 349 0.0 0.0 0.00 0.00 0.00 54 1035.2
20260903185344 36 28 0.0 0.0 0.00 0.00 0.00 51 1035.2
20260903184840 35 18 1.6 1.6 0.00 0.00 0.00 51 1034.6
20260903184337 35 15 0.0 1.6 0.00 0.00 0.00 53 1035.2
20260903183832 36 357 0.0 1.6 0.00 0.00 0.00 51 1035.2
20260903183327 35 35 3.2 3.2 0.00 0.00 0.00 54 1035.0
20260903182826 35 162 1.6 1.6 0.00 0.00 0.00 52 1035.3
20260903182320 35 101 1.6 1.6 0.00 0.00 0.00 53 1035.4
20260903181820 34 11 0.0 1.6 0.00 0.00 0.00 57 1035.7
20260903181315 33 7 1.6 1.6 0.00 0.00 0.00 57 1035.6
20260903180814 34 18 0.0 0.0 0.00 0.00 0.00 56 1035.6
20260903180313 35 15 0.0 0.0 0.00 0.00 0.00 55 1035.8
20260903175808 35 140 3.2 4.8 0.00 0.00 0.00 52 1035.6
20260903175307 35 25 0.0 0.0 0.00 0.00 0.00 53 1035.8
20260903174802 35 75 1.6 1.6 0.00 0.00 0.00 52 1035.7
20260903174257 34 16 0.0 0.0 0.00 0.00 0.00 56 1035.9
20260903173756 34 28 1.6 1.6 0.00 0.00 0.00 60 1035.9
20260903173253 35 8 0.0 1.6 0.00 0.00 0.00 55 1035.9
20260903172748 34 103 1.6 1.6 0.00 0.00 0.00 59 1036.0
20260903172242 34 22 0.0 0.0 0.00 0.00 0.00 60 1036.2
20260903171738 34 11 1.6 1.6 0.00 0.00 0.00 58 1036.3
20260903171233 33 338 1.6 3.2 0.00 0.00 0.00 63 1036.2
20260903170727 33 7 0.0 0.0 0.00 0.00 0.00 62 1036.4
20260903170222 33 91 3.2 3.2 0.00 0.00 0.00 56 1036.3
20260903165720 33 30 0.0 0.0 0.00 0.00 0.00 57 1036.4
20260903165215 34 33 0.0 0.0 0.00 0.00 0.00 58 1036.4
20260903164709 34 125 3.2 3.2 0.00 0.00 0.00 57 1036.7
20260903164206 33 111 1.6 1.6 0.00 0.00 0.00 59 1036.6
20260903163705 33 5 1.6 1.6 0.00 0.00 0.00 61 1036.5
20260903163202 33 356 0.0 0.0 0.00 0.00 0.00 64 1036.6
20260903162657 32 26 0.0 0.0 0.00 0.00 0.00 64 1036.7
20260903162153 32 3 1.6 3.2 0.00 0.00 0.00 64 1036.9
20260903161649 32 352 0.0 0.0 0.00 0.00 0.00 67 1036.8
20260903161144 32 7 1.6 1.6 0.00 0.00 0.00 66 1036.9
20260903160639 33 23 0.0 0.0 0.00 0.00 0.00 64 1037.0
20260903160133 33 34 0.0 0.0 0.00 0.00 0.00 64 1037.1
20260903155632 33 325 0.0 0.0 0.00 0.00 0.00 61 1037.2
20260903155127 33 322 0.0 1.6 0.00 0.00 0.00 60 1037.3
20260903154623 33 336 0.0 0.0 0.00 0.00 0.00 63 1037.1
20260903154120 32 13 0.0 0.0 0.00 0.00 0.00 64 1037.1
20260903153615 32 269 1.6 1.6 0.00 0.00 0.00 63 1037.3
20260903153110 33 349 0.0 0.0 0.00 0.00 0.00 63 1037.1
20260903152606 32 354 0.0 0.0 0.00 0.00 0.00 63 1037.4
20260903152103 32 352 0.0 0.0 0.00 0.00 0.00 63 1037.3
20260903151601 32 17 0.0 0.0 0.00 0.00 0.00 64 1037.3
20260903151057 32 341 0.0 0.0 0.00 0.00 0.00 66 1037.3
20260903150556 32 7 0.0 0.0 0.00 0.00 0.00 65 1037.1
20260903150052 31 346 0.0 0.0 0.00 0.00 0.00 69 1037.1
20260903145551 31 274 0.0 1.6 0.00 0.00 0.00 70 1037.1
20260903145046 31 6 0.0 0.0 0.00 0.00 0.00 71 1037.1
20260903144545 31 324 0.0 0.0 0.00 0.00 0.00 72 1037.1
20260903144042 31 0 0.0 0.0 0.00 0.00 0.00 71 1036.8
20260903143538 31 311 0.0 0.0 0.00 0.00 0.00 72 1037.0
20260903143033 31 326 0.0 0.0 0.00 0.00 0.00 73 1037.0
20260903142528 30 10 0.0 0.0 0.00 0.00 0.00 73 1036.8
20260903142026 30 5 0.0 0.0 0.00 0.00 0.00 75 1036.9
20260903141521 30 355 0.0 0.0 0.00 0.00 0.00 76 1037.0
20260903141016 29 332 0.0 0.0 0.00 0.00 0.00 77 1036.7
20260903140511 28 334 0.0 0.0 0.00 0.00 0.00 82 1036.8
20260903140007 28 333 0.0 0.0 0.00 0.00 0.00 82 1037.0
20260903135502 28 343 0.0 0.0 0.00 0.00 0.00 83 1036.9
20260903134956 28 333 0.0 0.0 0.00 0.00 0.00 84 1037.0
20260903134455 28 302 0.0 0.0 0.00 0.00 0.00 85 1037.1
20260903133953 27 336 0.0 0.0 0.00 0.00 0.00 85 1036.8
20260903133449 27 351 0.0 0.0 0.00 0.00 0.00 87 1037.1
20260903132944 27 330 0.0 0.0 0.00 0.00 0.00 88 1037.2
20260903132440 27 319 0.0 0.0 0.00 0.00 0.00 88 1037.1
20260903131939 26 26 0.0 0.0 0.00 0.00 0.00 88 1037.1
20260903131435 26 327 0.0 0.0 0.00 0.00 0.00 90 1037.1
20260903130933 26 336 0.0 0.0 0.00 0.00 0.00 91 1037.0
20260903130429 26 349 0.0 0.0 0.00 0.00 0.00 91 1036.9
20260903125927 26 328 0.0 0.0 0.00 0.00 0.00 92 1037.1
20260903125422 25 328 0.0 0.0 0.00 0.00 0.00 92 1036.9
20260903124921 25 326 0.0 0.0 0.00 0.00 0.00 92 1036.8
20260903124416 25 336 0.0 0.0 0.00 0.00 0.00 93 1036.9
20260903123915 25 337 0.0 0.0 0.00 0.00 0.00 94 1036.8
20260903123410 25 317 0.0 0.0 0.00 0.00 0.00 96 1036.9
20260903122909 25 310 0.0 0.0 0.00 0.00 0.00 96 1036.9
20260903122404 25 335 0.0 0.0 0.00 0.00 0.00 96 1036.9
20260903121902 25 330 0.0 0.0 0.00 0.00 0.00 97 1036.9
20260903121358 25 307 0.0 0.0 0.00 0.00 0.00 97 1036.6
20260903120854 24 336 0.0 0.0 0.00 0.00 0.00 97 1036.8
20260903120352 24 337 0.0 0.0 0.00 0.00 0.00 97 1037.0
20260903115851 24 338 0.0 0.0 0.00 0.00 0.00 97 1036.9
20260903115345 24 339 0.0 0.0 0.00 0.00 0.00 97 1036.8
20260903114840 24 340 0.0 0.0 0.00 0.00 0.00 97 1037.0
20260903114336 24 340 0.0 0.0 0.00 0.00 0.00 97 1036.9
20260903113831 24 340 0.0 0.0 0.00 0.00 0.00 97 1036.7
20260903113327 24 340 0.0 0.0 0.00 0.00 0.00 97 1036.7
20260903112822 24 341 0.0 0.0 0.00 0.00 0.00 97 1036.6
20260903112313 24 339 0.0 0.0 0.00 0.00 0.00 97 1036.6
20260903111811 24 332 0.0 0.0 0.00 0.00 0.00 97 1036.6
20260903111306 24 331 0.0 0.0 0.00 0.00 0.00 96 1036.5
20260903110802 24 328 0.0 0.0 0.00 0.00 0.00 96 1036.2
20260903110258 24 287 0.0 0.0 0.00 0.00 0.00 96 1036.3
20260903105757 25 337 0.0 0.0 0.00 0.00 0.00 95 1036.3
20260903105252 24 338 0.0 0.0 0.00 0.00 0.00 95 1036.2
20260903104752 24 343 0.0 0.0 0.00 0.00 0.00 95 1036.2
20260903104247 25 343 0.0 0.0 0.00 0.00 0.00 95 1036.2
20260903103743 25 343 0.0 0.0 0.00 0.00 0.00 95 1036.2
20260903103240 25 343 0.0 0.0 0.00 0.00 0.00 95 1036.2
20260903102735 25 342 0.0 0.0 0.00 0.00 0.00 95 1036.1
20260903102229 25 342 0.0 0.0 0.00 0.00 0.00 95 1036.1
20260903101727 25 342 0.0 0.0 0.00 0.00 0.00 95 1036.1
20260903101223 25 321 0.0 0.0 0.00 0.00 0.00 95 1036.1
20260903100718 25 346 0.0 0.0 0.00 0.00 0.00 95 1036.1
20260903100218 25 347 0.0 0.0 0.00 0.00 0.00 95 1036.0
20260903095715 25 346 0.0 0.0 0.00 0.00 0.00 95 1036.1
20260903095211 25 346 0.0 0.0 0.00 0.00 0.00 95 1036.2
20260903094705 25 7 0.0 0.0 0.00 0.00 0.00 95 1036.2
20260903094201 25 350 0.0 0.0 0.00 0.00 0.00 95 1036.2
20260903093655 25 346 0.0 0.0 0.00 0.00 0.00 95 1036.2
20260903093151 25 274 0.0 0.0 0.00 0.00 0.00 95 1036.3
20260903092645 25 10 0.0 0.0 0.00 0.00 0.00 95 1035.9
20260903092139 25 10 0.0 0.0 0.00 0.00 0.00 95 1036.0
20260903091638 25 10 0.0 0.0 0.00 0.00 0.00 95 1035.9
20260903091132 25 10 0.0 0.0 0.00 0.00 0.00 94 1036.2
20260903090628 25 10 0.0 0.0 0.00 0.00 0.00 94 1035.8
20260903090127 25 10 0.0 0.0 0.00 0.00 0.00 94 1035.8
20260903085626 25 10 0.0 0.0 0.00 0.00 0.00 93 1036.1
20260903085122 25 10 0.0 0.0 0.00 0.00 0.00 93 1035.9
20260903084619 25 348 0.0 0.0 0.00 0.00 0.00 93 1036.1
20260903084114 25 345 0.0 0.0 0.00 0.00 0.00 93 1036.2
20260903083610 25 343 0.0 0.0 0.00 0.00 0.00 93 1036.1
20260903083110 25 346 0.0 0.0 0.00 0.00 0.00 93 1036.3
20260903082604 25 346 0.0 0.0 0.00 0.00 0.00 93 1035.8
20260903082100 25 346 0.0 0.0 0.00 0.00 0.00 93 1035.9
20260903081555 25 347 0.0 0.0 0.00 0.00 0.00 93 1036.1
20260903081050 25 346 0.0 0.0 0.00 0.00 0.00 92 1035.9
20260903080547 25 346 0.0 0.0 0.00 0.00 0.00 92 1036.2
20260903080044 25 347 0.0 0.0 0.00 0.00 0.00 92 1036.0
20260903075544 25 348 0.0 0.0 0.00 0.00 0.00 92 1036.0
20260903075040 25 348 0.0 0.0 0.00 0.00 0.00 91 1035.9
20260903074538 25 348 0.0 0.0 0.00 0.00 0.00 91 1036.0
20260903074033 25 348 0.0 0.0 0.00 0.00 0.00 91 1036.0
20260903073528 25 347 0.0 0.0 0.00 0.00 0.00 91 1036.0
20260903073025 25 347 0.0 0.0 0.00 0.00 0.00 91 1036.0
20260903072520 25 347 0.0 0.0 0.00 0.00 0.00 91 1035.9
20260903072016 25 352 0.0 0.0 0.00 0.00 0.00 91 1036.0
20260903071513 25 352 0.0 0.0 0.00 0.00 0.00 91 1036.0
20260903071013 25 352 0.0 0.0 0.00 0.00 0.00 90 1035.8
20260903070513 25 352 0.0 0.0 0.00 0.00 0.00 90 1036.0
20260903070008 25 352 0.0 0.0 0.00 0.00 0.00 90 1036.0
20260903065503 25 352 0.0 0.0 0.00 0.00 0.00 90 1036.0
20260903065001 25 352 0.0 0.0 0.00 0.00 0.00 90 1035.8
20260903064456 25 352 0.0 0.0 0.00 0.00 0.00 90 1036.1
20260903063952 25 352 0.0 0.0 0.00 0.00 0.00 90 1036.1
20260903063447 25 352 0.0 0.0 0.00 0.00 0.00 90 1036.1
20260903062942 25 352 0.0 0.0 0.00 0.00 0.00 90 1036.2
20260903062437 25 352 0.0 0.0 0.00 0.00 0.00 89 1036.3
20260903061932 26 352 0.0 0.0 0.00 0.00 0.00 89 1036.3
20260903061432 26 352 0.0 0.0 0.00 0.00 0.00 89 1036.4
20260903060927 26 352 0.0 0.0 0.00 0.00 0.00 89 1036.3
20260903060422 26 351 0.0 0.0 0.00 0.00 0.00 88 1036.3
20260903055921 26 353 0.0 0.0 0.00 0.00 0.00 88 1036.1
20260903055419 26 353 0.0 0.0 0.00 0.00 0.00 88 1036.2
20260903054913 26 353 0.0 0.0 0.00 0.00 0.00 87 1036.1
20260903054408 26 353 0.0 0.0 0.00 0.00 0.00 87 1036.1
20260903053904 26 353 0.0 0.0 0.00 0.00 0.00 87 1036.1
20260903053359 26 352 0.0 0.0 0.00 0.00 0.00 86 1036.3
20260903052855 26 352 0.0 0.0 0.00 0.00 0.00 86 1036.4
20260903052350 26 349 0.0 0.0 0.00 0.00 0.00 86 1036.3
20260903051846 26 288 0.0 0.0 0.00 0.00 0.00 86 1036.3
20260903051341 26 305 0.0 0.0 0.00 0.00 0.00 86 1036.1
20260903050837 26 324 0.0 0.0 0.00 0.00 0.00 86 1036.3
20260903050335 26 298 0.0 1.6 0.00 0.00 0.00 86 1036.1
20260903045830 26 3 0.0 0.0 0.00 0.00 0.00 85 1036.1
20260903045326 26 19 0.0 0.0 0.00 0.00 0.00 85 1036.2
20260903044823 26 19 0.0 0.0 0.00 0.00 0.00 85 1036.2